TCISK LTAI-LTCG

Flight info

Callsign TCISK
Flight time 1h 20m
Altitude 45000
Route TEWHE UR55 MUT UA285 SIV UT284 ARSUG W71 TEMEL
Aircraft C750/M-SBDE3FGHRWXY/S

Departure

Time 2026-05-04 19:13
Airport Antalya International Airport (LTAI)

Arrival

Time 2026-05-04 20:33
Airport Trabzon International Airport (LTCG)
Time Latitude Longitude Altitude Speed Heading
2026-05-04 18:56 36.90948 30.79754 188 ft 0 kts 276°
2026-05-04 19:04 36.90946 30.79775 191 ft 2 kts 276°
2026-05-04 19:05 36.90945 30.79784 200 ft 0 kts 276°
2026-05-04 19:07 36.90938 30.79775 196 ft 3 kts 205°
2026-05-04 19:07 36.90903 30.79756 188 ft 10 kts 200°
2026-05-04 19:07 36.90812 30.79738 195 ft 15 kts 186°
2026-05-04 19:07 36.90699 30.79723 188 ft 18 kts 186°
2026-05-04 19:08 36.90568 30.79704 188 ft 20 kts 187°
2026-05-04 19:08 36.90435 30.79670 188 ft 19 kts 206°
2026-05-04 19:08 36.90308 30.79630 193 ft 19 kts 185°
2026-05-04 19:08 36.90182 30.79614 188 ft 18 kts 186°
2026-05-04 19:09 36.90060 30.79599 196 ft 17 kts 186°
2026-05-04 19:09 36.89943 30.79580 188 ft 17 kts 187°
2026-05-04 19:09 36.89852 30.79568 191 ft 2 kts 200°
2026-05-04 19:09 36.89849 30.79533 192 ft 8 kts 283°
2026-05-04 19:10 36.89822 30.79461 188 ft 14 kts 194°
2026-05-04 19:10 36.89709 30.79446 188 ft 17 kts 187°
2026-05-04 19:10 36.89596 30.79431 192 ft 16 kts 185°
2026-05-04 19:10 36.89495 30.79415 189 ft 14 kts 187°
2026-05-04 19:11 36.89416 30.79389 196 ft 10 kts 227°
2026-05-04 19:11 36.89428 30.79323 190 ft 9 kts 316°
2026-05-04 19:11 36.89475 30.79297 188 ft 7 kts 337°
2026-05-04 19:11 36.89532 30.79264 187 ft 12 kts 335°
2026-05-04 19:12 36.89633 30.79219 186 ft 16 kts 355°
2026-05-04 19:12 36.89854 30.79246 190 ft 56 kts
2026-05-04 19:12 36.90600 30.79347 233 ft 140 kts
2026-05-04 19:13 36.91586 30.79495 798 ft 147 kts
2026-05-04 19:13 36.92627 30.79507 1519 ft 152 kts 350°
2026-05-04 19:13 36.93712 30.79223 2147 ft 172 kts 343°
2026-05-04 19:13 36.94967 30.78875 2819 ft 191 kts 346°
2026-05-04 19:14 36.96238 30.78625 4044 ft 185 kts 349°
2026-05-04 19:14 36.97531 30.78396 5072 ft 191 kts 350°
2026-05-04 19:14 36.98870 30.78157 6040 ft 198 kts 351°
2026-05-04 19:14 37.00258 30.77858 6855 ft 212 kts 349°
2026-05-04 19:15 37.01810 30.77534 7402 ft 240 kts 351°
2026-05-04 19:15 37.03539 30.77192 8115 ft 258 kts 350°
2026-05-04 19:15 37.05317 30.76820 9285 ft 261 kts 349°
2026-05-04 19:15 37.07150 30.76429 10132 ft 271 kts 349°
2026-05-04 19:16 37.09003 30.75777 10453 ft 295 kts 333°
2026-05-04 19:16 37.10567 30.74089 11323 ft 296 kts 310°
2026-05-04 19:16 37.11483 30.71782 12283 ft 303 kts 286°
2026-05-04 19:16 37.11578 30.69086 12977 ft 315 kts 269°
2026-05-04 19:17 37.10927 30.66439 13848 ft 325 kts 247°
2026-05-04 19:17 37.09504 30.64180 14537 ft 339 kts 225°
2026-05-04 19:17 37.07491 30.62563 15237 ft 348 kts 213°
2026-05-04 19:17 37.05368 30.61129 15941 ft 354 kts 211°
2026-05-04 19:18 37.03178 30.59649 16657 ft 359 kts 212°
2026-05-04 19:18 37.00979 30.58105 17402 ft 365 kts 213°
2026-05-04 19:18 36.98598 30.56862 18004 ft 380 kts 195°
2026-05-04 19:18 36.95957 30.56466 18773 ft 383 kts 187°
2026-05-04 19:19 36.93331 30.56159 19519 ft 384 kts 188°
2026-05-04 19:19 36.90676 30.55822 20394 ft 384 kts 188°
2026-05-04 19:19 36.87996 30.55458 21094 ft 390 kts 189°
2026-05-04 19:19 36.85276 30.55103 21825 ft 395 kts 188°
2026-05-04 19:20 36.82521 30.54773 22518 ft 401 kts 187°
2026-05-04 19:20 36.79707 30.55079 23148 ft 411 kts 168°
2026-05-04 19:20 36.77028 30.56342 23827 ft 415 kts 151°
2026-05-04 19:20 36.74713 30.58495 24413 ft 417 kts 134°
2026-05-04 19:21 36.72950 30.61361 25028 ft 416 kts 117°
2026-05-04 19:21 36.71893 30.64701 25619 ft 414 kts 100°
2026-05-04 19:21 36.71515 30.68240 26231 ft 413 kts 91°
2026-05-04 19:21 36.71289 30.71829 26842 ft 417 kts 90°
2026-05-04 19:22 36.71074 30.75404 27438 ft 421 kts 90°
2026-05-04 19:22 36.70832 30.79061 28049 ft 426 kts 90°
2026-05-04 19:22 36.70576 30.82758 28663 ft 430 kts 90°
2026-05-04 19:22 36.70327 30.86494 29275 ft 435 kts 90°
2026-05-04 19:23 36.70155 30.90275 29824 ft 437 kts 85°
2026-05-04 19:23 36.70402 30.94048 30346 ft 437 kts 79°
2026-05-04 19:23 36.70718 30.97848 30812 ft 443 kts 80°
2026-05-04 19:23 36.71011 31.01705 31245 ft 449 kts 80°
2026-05-04 19:24 36.71305 31.05598 31758 ft 452 kts 80°
2026-05-04 19:24 36.71616 31.09512 32250 ft 456 kts 80°
2026-05-04 19:24 36.71934 31.13463 32697 ft 461 kts 80°
2026-05-04 19:24 36.72264 31.17398 33191 ft 464 kts 80°
2026-05-04 19:25 36.72620 31.21417 33634 ft 468 kts 79°
2026-05-04 19:25 36.72971 31.25483 34054 ft 473 kts 81°
2026-05-04 19:25 36.73365 31.29585 34297 ft 479 kts 76°
2026-05-04 19:25 36.74222 31.33559 34954 ft 468 kts 66°
2026-05-04 19:26 36.75557 31.37225 35577 ft 461 kts 57°
2026-05-04 19:26 36.77341 31.40551 36023 ft 458 kts 47°
2026-05-04 19:26 36.79488 31.43391 36497 ft 455 kts 38°
2026-05-04 19:26 36.81921 31.45904 37007 ft 453 kts 34°
2026-05-04 19:27 36.84438 31.48290 37504 ft 455 kts 33°
2026-05-04 19:27 36.86906 31.50795 37988 ft 459 kts 38°
2026-05-04 19:27 36.89242 31.53537 38453 ft 463 kts 40°
2026-05-04 19:27 36.91583 31.56322 38816 ft 465 kts 39°
2026-05-04 19:28 36.93873 31.59191 39239 ft 467 kts 43°
2026-05-04 19:28 36.95936 31.62350 39700 ft 471 kts 52°
2026-05-04 19:28 36.97564 31.65865 40142 ft 474 kts 62°
2026-05-04 19:28 36.98740 31.69740 40586 ft 477 kts 72°
2026-05-04 19:29 36.99401 31.73817 41057 ft 479 kts 82°
2026-05-04 19:29 36.99531 31.77983 41522 ft 479 kts 91°
2026-05-04 19:29 36.99128 31.82118 41970 ft 479 kts 101°
2026-05-04 19:29 36.98301 31.86150 42421 ft 478 kts 107°
2026-05-04 19:30 36.97327 31.90131 42863 ft 477 kts 107°
2026-05-04 19:30 36.96447 31.94077 43270 ft 477 kts 103°
2026-05-04 19:30 36.95845 31.98169 43710 ft 477 kts 98°
2026-05-04 19:30 36.95418 32.02273 44165 ft 475 kts 97°
2026-05-04 19:31 36.94941 32.06363 44583 ft 475 kts 100°
2026-05-04 19:31 36.94287 32.10393 44937 ft 472 kts 103°
2026-05-04 19:31 36.93614 32.14453 44932 ft 480 kts 101°
2026-05-04 19:32 36.92491 32.22787 44950 ft 495 kts 100°
2026-05-04 19:32 36.91186 32.31374 44953 ft 509 kts 101°
2026-05-04 19:33 36.89912 32.40210 44962 ft 522 kts 101°
2026-05-04 19:33 36.88723 32.49120 44934 ft 524 kts 95°
2026-05-04 19:34 36.88501 32.58214 44955 ft 525 kts 91°
2026-05-04 19:34 36.88240 32.67350 44961 ft 527 kts 94°
2026-05-04 19:35 36.87961 32.76439 44952 ft 527 kts 92°
2026-05-04 19:35 36.87710 32.85591 44949 ft 526 kts 93°
2026-05-04 19:36 36.87410 32.94714 44944 ft 524 kts 92°
2026-05-04 19:36 36.87143 33.03816 44944 ft 524 kts 93°
2026-05-04 19:37 36.86837 33.12927 44935 ft 525 kts 93°
2026-05-04 19:37 36.86937 33.22042 44932 ft 525 kts 83°
2026-05-04 19:38 36.88952 33.30752 44932 ft 526 kts 65°
2026-05-04 19:38 36.92905 33.38408 44951 ft 525 kts 47°
2026-05-04 19:39 36.98381 33.44395 44960 ft 523 kts 34°
2026-05-04 19:39 37.04311 33.49660 44958 ft 523 kts 35°
2026-05-04 19:40 37.09715 33.55770 44968 ft 522 kts 44°
2026-05-04 19:40 37.14838 33.62134 44964 ft 521 kts 40°
2026-05-04 19:41 37.20303 33.68129 44972 ft 521 kts 41°
2026-05-04 19:41 37.25534 33.74400 44974 ft 521 kts 41°
2026-05-04 19:42 37.30925 33.80518 44973 ft 522 kts 41°
2026-05-04 19:42 37.36233 33.86771 44972 ft 522 kts 42°
2026-05-04 19:43 37.41574 33.92948 44970 ft 521 kts 41°
2026-05-04 19:43 37.46859 33.99139 44959 ft 524 kts 42°
2026-05-04 19:44 37.52197 34.05396 44953 ft 523 kts 41°
2026-05-04 19:44 37.57529 34.11654 44953 ft 523 kts 42°
2026-05-04 19:45 37.62832 34.17901 44954 ft 523 kts 42°
2026-05-04 19:45 37.68164 34.24183 44947 ft 526 kts 42°
2026-05-04 19:46 37.73508 34.30503 44940 ft 526 kts 42°
2026-05-04 19:46 37.78824 34.36795 44935 ft 526 kts 42°
2026-05-04 19:47 37.84155 34.43123 44941 ft 523 kts 42°
2026-05-04 19:47 37.88574 34.48375 44932 ft 524 kts 42°
2026-05-04 19:48 37.94789 34.55768 44947 ft 527 kts 42°
2026-05-04 19:48 37.99267 34.61093 44963 ft 526 kts 42°
2026-05-04 19:49 38.04567 34.67420 44963 ft 526 kts 42°
2026-05-04 19:49 38.09902 34.73794 44947 ft 526 kts 42°
2026-05-04 19:50 38.15241 34.80192 44942 ft 528 kts 42°
2026-05-04 19:50 38.20554 34.86568 44935 ft 528 kts 42°
2026-05-04 19:51 38.25879 34.92975 44943 ft 526 kts 43°
2026-05-04 19:51 38.31211 34.99381 44925 ft 526 kts 43°
2026-05-04 19:52 38.36535 35.05765 44923 ft 527 kts 43°
2026-05-04 19:52 38.42139 35.11894 44918 ft 534 kts 39°
2026-05-04 19:53 38.47863 35.17997 44918 ft 541 kts 39°
2026-05-04 19:53 38.53574 35.24351 44898 ft 545 kts 43°
2026-05-04 19:54 38.58951 35.31249 44899 ft 549 kts 45°
2026-05-04 19:54 38.64361 35.38133 44904 ft 551 kts 44°
2026-05-04 19:55 38.69808 35.45087 44895 ft 553 kts 45°
2026-05-04 19:55 38.72482 35.48542 44882 ft 534 kts 45°
2026-05-04 19:55 38.75071 35.51848 44870 ft 521 kts 44°
2026-05-04 19:56 38.80155 35.58353 44874 ft 525 kts 45°
2026-05-04 19:56 38.85326 35.65024 44889 ft 527 kts 45°
2026-05-04 19:57 38.90504 35.71688 44892 ft 525 kts 45°
2026-05-04 19:57 38.95691 35.78303 44893 ft 530 kts 43°
2026-05-04 19:58 39.00999 35.84913 44895 ft 530 kts 44°
2026-05-04 19:58 39.06289 35.91499 44901 ft 527 kts 44°
2026-05-04 19:59 39.11531 35.98029 44903 ft 528 kts 44°
2026-05-04 19:59 39.16746 36.04680 44889 ft 526 kts 46°
2026-05-04 20:00 39.21821 36.11496 44897 ft 527 kts 46°
2026-05-04 20:00 39.26904 36.18334 44899 ft 527 kts 46°
2026-05-04 20:01 39.31937 36.25128 44900 ft 525 kts 46°
2026-05-04 20:01 39.37008 36.31980 44904 ft 527 kts 46°
2026-05-04 20:02 39.42079 36.38856 44904 ft 527 kts 46°
2026-05-04 20:02 39.47138 36.45724 44906 ft 527 kts 47°
2026-05-04 20:03 39.52164 36.52568 44913 ft 527 kts 47°
2026-05-04 20:03 39.57215 36.59473 44898 ft 527 kts 47°
2026-05-04 20:04 39.62262 36.66382 44892 ft 527 kts 47°
2026-05-04 20:04 39.67301 36.73299 44883 ft 527 kts 47°
2026-05-04 20:05 39.72306 36.80183 44883 ft 527 kts 47°
2026-05-04 20:05 39.77346 36.87131 44883 ft 527 kts 47°
2026-05-04 20:06 39.82887 36.93393 44884 ft 528 kts 37°
2026-05-04 20:06 39.88761 36.99058 44903 ft 527 kts 38°
2026-05-04 20:07 39.94491 37.04945 44873 ft 525 kts 38°
2026-05-04 20:07 40.00308 37.10687 44867 ft 524 kts 38°
2026-05-04 20:08 40.06066 37.16542 44861 ft 524 kts 38°
2026-05-04 20:08 40.11847 37.22336 44854 ft 523 kts 38°
2026-05-04 20:09 40.17586 37.28155 44853 ft 523 kts 38°
2026-05-04 20:09 40.23349 37.33984 44860 ft 523 kts 38°
2026-05-04 20:10 40.29060 37.39801 44863 ft 523 kts 38°
2026-05-04 20:10 40.34814 37.45665 44858 ft 523 kts 38°
2026-05-04 20:11 40.40519 37.51490 43911 ft 514 kts 39°
2026-05-04 20:11 40.43301 37.54341 43201 ft 503 kts 39°
2026-05-04 20:11 40.46039 37.57146 42464 ft 495 kts 38°
2026-05-04 20:11 40.48735 37.59908 41729 ft 487 kts 38°
2026-05-04 20:12 40.51353 37.62596 41032 ft 482 kts 39°
2026-05-04 20:12 40.53992 37.65309 40312 ft 481 kts 39°
2026-05-04 20:12 40.56630 37.68024 39597 ft 482 kts 39°
2026-05-04 20:12 40.59278 37.70750 38871 ft 484 kts 39°
2026-05-04 20:13 40.61937 37.73494 38084 ft 485 kts 39°
2026-05-04 20:13 40.64586 37.76240 37363 ft 483 kts 39°
2026-05-04 20:13 40.67226 37.78979 36639 ft 481 kts 39°
2026-05-04 20:13 40.69868 37.81714 35913 ft 482 kts 39°
2026-05-04 20:14 40.72472 37.84410 35195 ft 482 kts 39°
2026-05-04 20:14 40.75108 37.87146 34476 ft 481 kts 39°
2026-05-04 20:14 40.77740 37.89884 33749 ft 480 kts 39°
2026-05-04 20:14 40.80358 37.92611 33028 ft 479 kts 39°
2026-05-04 20:15 40.82977 37.95343 32311 ft 478 kts 39°
2026-05-04 20:15 40.85558 37.98037 31600 ft 477 kts 40°
2026-05-04 20:15 40.88168 38.00756 30885 ft 477 kts 39°
2026-05-04 20:15 40.90882 38.03299 30168 ft 476 kts 37°
2026-05-04 20:16 40.93552 38.05834 29410 ft 467 kts 38°
2026-05-04 20:16 40.96167 38.08374 28710 ft 463 kts 38°
2026-05-04 20:16 40.98649 38.11057 28023 ft 459 kts 41°
2026-05-04 20:16 41.01070 38.13697 27351 ft 454 kts 41°
2026-05-04 20:17 41.03502 38.16359 26672 ft 449 kts 41°
2026-05-04 20:17 41.05885 38.19003 26006 ft 444 kts 41°
2026-05-04 20:17 41.08241 38.21622 25349 ft 440 kts 41°
2026-05-04 20:17 41.10463 38.24376 24651 ft 434 kts 51°
2026-05-04 20:18 41.11986 38.27766 24020 ft 426 kts 68°
2026-05-04 20:18 41.12708 38.31475 23390 ft 418 kts 85°
2026-05-04 20:18 41.12656 38.35288 22761 ft 410 kts 97°
2026-05-04 20:18 41.12349 38.39040 22152 ft 406 kts 98°
2026-05-04 20:19 41.12024 38.42741 21541 ft 402 kts 98°
2026-05-04 20:19 41.11713 38.46418 20936 ft 398 kts 98°
2026-05-04 20:19 41.11418 38.50052 20340 ft 394 kts 98°
2026-05-04 20:19 41.11121 38.53612 19758 ft 391 kts 98°
2026-05-04 20:20 41.10818 38.57173 19176 ft 387 kts 98°
2026-05-04 20:20 41.10516 38.60717 18591 ft 383 kts 98°
2026-05-04 20:20 41.10219 38.64204 17999 ft 379 kts 98°
2026-05-04 20:20 41.09916 38.67665 17423 ft 376 kts 98°
2026-05-04 20:21 41.09618 38.71063 16868 ft 373 kts 98°
2026-05-04 20:21 41.09315 38.74477 16306 ft 370 kts 98°
2026-05-04 20:21 41.08704 38.81218 15205 ft 365 kts 98°
2026-05-04 20:22 41.08404 38.84550 14747 ft 364 kts 98°
2026-05-04 20:22 41.08105 38.87843 14219 ft 363 kts 98°
2026-05-04 20:22 41.07805 38.91147 13674 ft 360 kts 98°
2026-05-04 20:22 41.07503 38.94435 13111 ft 357 kts 98°
2026-05-04 20:23 41.07205 38.97693 12568 ft 354 kts 98°
2026-05-04 20:23 41.06907 39.00932 12047 ft 352 kts 98°
2026-05-04 20:23 41.06611 39.04138 11526 ft 349 kts 98°
2026-05-04 20:23 41.06324 39.07253 11014 ft 328 kts 98°
2026-05-04 20:24 41.06060 39.10118 10548 ft 307 kts 98°
2026-05-04 20:24 41.05843 39.12858 10088 ft 292 kts 94°
2026-05-04 20:24 41.06236 39.15466 9623 ft 288 kts 71°
2026-05-04 20:24 41.06980 39.17920 9225 ft 285 kts 69°
2026-05-04 20:25 41.07713 39.20346 8809 ft 282 kts 70°
2026-05-04 20:25 41.08428 39.22755 8382 ft 279 kts 70°
2026-05-04 20:25 41.09136 39.25140 7901 ft 277 kts 69°
2026-05-04 20:25 41.09846 39.27518 7224 ft 274 kts 69°
2026-05-04 20:26 41.10538 39.29835 6824 ft 267 kts 69°
2026-05-04 20:26 41.11210 39.32093 6523 ft 265 kts 69°
2026-05-04 20:26 41.11886 39.34372 6241 ft 265 kts 69°
2026-05-04 20:26 41.12237 39.36743 5881 ft 264 kts 91°
2026-05-04 20:27 41.11857 39.39098 5646 ft 261 kts 108°
2026-05-04 20:27 41.11169 39.41329 5400 ft 261 kts 112°
2026-05-04 20:27 41.10463 39.43545 5135 ft 260 kts 111°
2026-05-04 20:27 41.09776 39.45755 4877 ft 258 kts 111°
2026-05-04 20:28 41.09101 39.47926 4602 ft 258 kts 111°
2026-05-04 20:28 41.08415 39.50144 4307 ft 256 kts 111°
2026-05-04 20:28 41.07759 39.52268 4042 ft 246 kts 111°
2026-05-04 20:28 41.07131 39.54296 3783 ft 230 kts 111°
2026-05-04 20:29 41.06540 39.56200 3543 ft 217 kts 111°
2026-05-04 20:29 41.05979 39.58029 3318 ft 212 kts 111°
2026-05-04 20:29 41.05427 39.59822 3100 ft 209 kts 111°
2026-05-04 20:29 41.04887 39.61566 2930 ft 198 kts 111°
2026-05-04 20:30 41.04370 39.63234 2643 ft 194 kts 111°
2026-05-04 20:30 41.03865 39.64864 2357 ft 185 kts 112°
2026-05-04 20:30 41.03399 39.66384 2080 ft 183 kts 112°
2026-05-04 20:30 41.02922 39.67927 1826 ft 180 kts 112°
2026-05-04 20:31 41.02445 39.69468 1562 ft 178 kts 113°
2026-05-04 20:31 41.02000 39.70907 1304 ft 160 kts 113°
2026-05-04 20:31 41.01614 39.72158 1072 ft 134 kts 113°
2026-05-04 20:31 41.01283 39.73232 848 ft 123 kts 112°
2026-05-04 20:32 41.00966 39.74264 619 ft 120 kts 111°
2026-05-04 20:32 41.00663 39.75279 468 ft 117 kts 111°
2026-05-04 20:32 41.00352 39.76270 324 ft 116 kts 112°
2026-05-04 20:32 41.00043 39.77271 175 ft 117 kts 111°
2026-05-04 20:33 40.99741 39.78245 108 ft 107 kts 111°
2026-05-04 20:33 40.99489 39.79038 98 ft 70 kts 113°
2026-05-04 20:33 40.99379 39.79415 103 ft 17 kts 94°
2026-05-04 20:33 40.99351 39.79455 104 ft 8 kts 264°
2026-05-04 20:34 40.99380 39.79342 103 ft 16 kts 288°
2026-05-04 20:34 40.99357 39.79196 100 ft 18 kts 248°
2026-05-04 20:34 40.99337 39.79048 101 ft 16 kts 288°
2026-05-04 20:34 40.99385 39.78897 111 ft 19 kts 292°
2026-05-04 20:35 40.99437 39.78726 110 ft 21 kts 292°
2026-05-04 20:35 40.99495 39.78539 111 ft 23 kts 294°
2026-05-04 20:35 40.99561 39.78329 111 ft 18 kts 292°
2026-05-04 20:35 40.99584 39.78250 112 ft 7 kts 293°
2026-05-04 20:36 40.99573 39.78199 112 ft 8 kts 206°
2026-05-04 20:36 40.99531 39.78177 112 ft 0 kts 202°